This is the latest recevied weather packets stored in our database for station/object KR4KUV. If no packets are shown the sender has not sent any weather packets the latest 10 day(s).
| Time | Temp. | Humidity | Pressure | Rain* | Wind** | Luminosity | Snow |
|---|---|---|---|---|---|---|---|
| 1787497978 | 27.22° C | 64% | 1017.9 hPa | 0 mm | - | 513 W/m² | - |
| 1787497673 | 27.22° C | 66% | 1017.9 hPa | 0 mm | - | 543 W/m² | - |
| 1787497368 | 27.22° C | 65% | 1017.9 hPa | 0 mm | - | 363 W/m² | - |
| 1787497067 | 27.22° C | 65% | 1018.1 hPa | 0 mm | - | 61 W/m² | - |
| 1787496762 | 27.22° C | 69% | 1017.8 hPa | 0 mm | - | 72 W/m² | - |
| 1787496456 | 26.67° C | 67% | 1017.8 hPa | 0 mm | - | 56 W/m² | - |
| 1787496146 | 26.67° C | 66% | 1017.8 hPa | 0 mm | - | 325 W/m² | - |
| 1787495846 | 26.67° C | 71% | 1017.8 hPa | 0 mm | - | 220 W/m² | - |
| 1787495542 | 26.11° C | 70% | 1017.7 hPa | 0 mm | - | 69 W/m² | - |
| 1787495238 | 26.11° C | 73% | 1017.6 hPa | 0 mm | - | 429 W/m² | - |
| 1787494934 | 25.56° C | 74% | 1017.6 hPa | 0 mm | - | 63 W/m² | - |
| 1787494633 | 25.56° C | 75% | 1017.7 hPa | 0 mm | - | 54 W/m² | - |
| 1787494329 | 26.11° C | 75% | 1017.6 hPa | 0 mm | - | 55 W/m² | - |
| 1787494024 | 25.56° C | 73% | 1017.6 hPa | 0 mm | - | 54 W/m² | - |
| 1787493720 | 25.56° C | 72% | 1017.5 hPa | 0 mm | - | 119 W/m² | - |
| 1787493414 | 25.56° C | 80% | 1017.6 hPa | 0 mm | - | 57 W/m² | - |
| 1787493111 | 25.56° C | 79% | 1017.4 hPa | 0 mm | - | 55 W/m² | - |
| 1787492806 | 25° C | 79% | 1017.5 hPa | 0 mm | - | 50 W/m² | - |
| 1787492502 | 25° C | 84% | 1017.4 hPa | 0 mm | - | 65 W/m² | - |
| 1787492197 | 25° C | 79% | 1017.3 hPa | 0 mm | - | 115 W/m² | - |
| 1787491893 | 25° C | 81% | 1017.3 hPa | 0 mm | - | 55 W/m² | - |
| 1787491588 | 24.44° C | 84% | 1017.1 hPa | 0 mm | - | 288 W/m² | - |
| 1787491283 | 24.44° C | 84% | 1017.3 hPa | 0 mm | - | 135 W/m² | - |
| 1787490979 | 24.44° C | 88% | 1017.1 hPa | 0 mm | - | 175 W/m² | - |
| 1787490675 | 23.89° C | 86% | 1017 hPa | 0 mm | - | 67 W/m² | - |
* Rain latest hour (hover to see other rain measurements)
** Current wind speed in m/s (hover to see current wind gust speed)